Location: ?????????
(53.2086°N, 54.0693°E)
Time: 17:11:23
(UTC+00:00)

YAOGAN 6 - Pass Details

Date: 08 December 2019
Orbit: 466 x 504 km, 97.0° (Epoch: 20 January)

Event Time Altitude Azimuth Distance (km) Brightness Sun altitude
Rises 13:46:10 0° 146° (SE) 2,517 6.0 -13.8°
Reaches altitude 10° 13:48:17 10° 138° (SE) 1,649 5.0 -14.1°
Maximum altitude 13:51:36 39° 69° (ENE) 744 3.0 -14.6°
Drops below altitude 10° 13:54:59 10° 0° (N) 1,682 5.1 -15.1°
Sets 13:57:09 0° 353° (N) 2,576 6.1 -15.4°
